Home > Weather > Granby > Past weeks

Flag for Canada Past Weather in Granby, Quebec, Canada — Yesterday and Last 2 Weeks

Now
58 °F

Cool.


Feels Like: 58 °F
Forecast: 54 / 79 °F
Wind: 2 mph from South

Location: Frelighsburg

Current Time: Jun 30, 2016 at 4:40:16 AM

Latest Report: Jun 30, 2016 at 4:00 AM


Visibility: N/A

Pressure: 29.94 "Hg

Humidity: 100%

Dew Point: 58 °F

Location of GranbyLocation

Past Weather in Granby — Graph

°F

Granby Temperature Yesterday

Maximum temperature yesterday: 70 °F (at 4:00 PM)
Minimum temperature yesterday: 62 °F (at 12:00 AM)
Average temperature yesterday: 65 °F

High & Low Weather Summary for the Past Weeks

 TemperatureHumidityPressure
High86 °F (Jun 20, 4:00 PM)100% (Jun 29, 12:00 AM)30.23 "Hg (Jun 29, 12:00 AM)
Low53 °F (Jun 17, 4:00 AM)19% (Jun 18, 5:00 PM)29.63 "Hg (Jun 21, 1:00 AM)
Average68 °F62%29.95 "Hg
* Reported Jun 15 3:00 AM — Jun 30 3:00 AM, Granby, Weather by CustomWeather, © 2016

Note: Actual official high and low records may vary slightly from our data, if they occured in-between our weather recording intervals... More about our weather records

Advertising

Granby Weather History for the Previous 24 Hours

Scroll right to see more
 ConditionsComfort  
Time TempWeatherWind HumidityBarometerVisibility
3:00 AM
Thu, Jun 30
59 °FCool.3 mph99%29.93 "HgN/A
2:00 AM59 °FCool.2 mph98%29.93 "HgN/A
1:00 AM60 °FCool.2 mph97%29.93 "HgN/A
12:00 AM60 °FCool.No wind98%29.93 "HgN/A
11:00 PM
Wed, Jun 29
62 °FCool.1 mph95%29.92 "HgN/A
10:00 PM62 °FCool.1 mph94%29.91 "HgN/A
9:00 PM63 °FMild.2 mph92%29.90 "HgN/A
8:00 PM66 °FMild.3 mph83%29.89 "HgN/A
7:00 PM67 °FMild.3 mph76%29.88 "HgN/A
6:00 PM69 °FMild.7 mph72%29.86 "HgN/A
5:00 PM68 °FMild.2 mph78%29.86 "HgN/A
4:00 PM70 °FMild.3 mph78%29.86 "HgN/A
3:00 PM68 °FMild.2 mph88%29.86 "HgN/A
2:00 PM67 °FMild.3 mph81%29.85 "HgN/A
1:00 PM65 °FMild.3 mph90%29.86 "HgN/A
12:00 PM69 °FMild.5 mph76%29.87 "HgN/A
11:00 AM67 °FMild.6 mph84%29.87 "HgN/A
10:00 AM68 °FMild.3 mph84%29.86 "HgN/A
9:00 AM65 °FMild.3 mph93%29.86 "HgN/A
8:00 AM64 °FMild.2 mph96%29.86 "HgN/A
7:00 AM64 °FMild.2 mph98%29.85 "HgN/A
6:00 AM63 °FMild.2 mph98%29.84 "HgN/A
5:00 AM63 °FMild.No wind99%29.84 "HgN/A
4:00 AM62 °FMild.No wind99%29.84 "HgN/A
Weather by CustomWeather, © 2016

See weather overviewHow to use our weather pages